Medford, OR

5:16 PM PST on November 20, 2017 (GMT -0800)
Rogue Valley International-Medford

Weather History for KMFR - February, 2013

Change the Weather History Date:

Monday, February 25, 2013

  Actual Average Record
Temperature  
Mean Temperature 42 °F 46 °F  
Max Temperature 51 °F 57 °F 79 °F (1992)
Min Temperature 32 °F 35 °F 16 °F (1962)
Degree Days  
Heating Degree Days 23 19  
Month to date heating degree days 594 525  
Since 1 July heating degree days 3013 3057  
Cooling Degree Days 0 0  
Month to date cooling degree days 0 0  
Year to date cooling degree days 0 0  
Moisture  
Dew Point 32 °F    
Average Humidity 64    
Maximum Humidity 92    
Minimum Humidity 36    
Precipitation  
Precipitation 0.06 in 0.07 in 1.01 in (1917)
Month to date precipitation 0.42 1.80  
Year to date precipitation 1.38 4.23  
Snow  
Snow 0.00 in 0.00 in - ()
Month to date snowfall T 0.5  
Since 1 July snowfall 1.7 3.5  
Snow Depth 0.00 in    
Sea Level Pressure  
Sea Level Pressure 30.32 in    
Wind  
Wind Speed 6 mph (NW)    
Max Wind Speed 20 mph    
Max Gust Speed 25 mph    
Visibility 10 miles    
Events Rain    
T = Trace of Precipitation, MM = Missing Value Source: NWS Daily Summary

Daily Weather History Graph

Daily Weather History Graph

Search for Another Location

Airport or City:

Trip Planner

Search our weather history database for the weather conditions in past years. The results will help you decide how hot, cold, wet, or windy it might be!

Date:

Astronomy

Feb. 25, 2013 Rise Set
Actual Time 6:52 AM PST 5:56 PM PST
Civil Twilight 6:24 AM PST 6:25 PM PST
Nautical Twilight 5:51 AM PST 6:57 PM PST
Astronomical Twilight 5:19 AM PST 7:30 PM PST
Moon 6:17 PM PST (2/25) 6:25 AM PST (2/25)
Length of Visible Light 12h 00m
Length of Day
11h 04m
Full, 100% of the Moon is Illuminated
Feb 25
Full
Feb 25
Full
Mar 4
Last Quarter
Mar 11
New
Mar 19
First Quarter

Hourly Weather History & Observations

Time (PST) Temp. Windchill Dew Point Humidity Pressure Visibility Wind Dir Wind Speed Gust Speed Precip Events Conditions
12:53 AM 39.0 °F 36.8 °F 33.1 °F 79% 30.23 in 10.0 mi West 3.5 mph - N/A   Clear
1:53 AM 37.9 °F 34.4 °F 33.1 °F 83% 30.22 in 10.0 mi SSE 4.6 mph - N/A   Overcast
2:53 AM 39.0 °F 36.8 °F 33.1 °F 79% 30.22 in 10.0 mi NNW 3.5 mph - 0.00 in Rain Light Rain
3:53 AM 37.0 °F 33.3 °F 35.1 °F 93% 30.23 in 10.0 mi NE 4.6 mph - 0.01 in Rain Light Rain
4:53 AM 37.9 °F 35.5 °F 35.1 °F 89% 30.25 in 9.0 mi NNE 3.5 mph - 0.01 in Rain Light Rain
5:53 AM 37.9 °F - 36.0 °F 93% 30.27 in 10.0 mi Calm Calm - 0.00 in   Overcast
6:53 AM 37.9 °F - 36.0 °F 93% 30.29 in 10.0 mi Calm Calm - 0.00 in   Mostly Cloudy
7:37 AM 37.4 °F 33.8 °F 35.6 °F 93% 30.30 in 5.0 mi North 4.6 mph - 0.00 in Rain Light Rain
7:53 AM 37.9 °F 35.5 °F 36.0 °F 93% 30.33 in 7.0 mi West 3.5 mph - 0.02 in Rain Light Rain
8:05 AM 37.4 °F - 35.6 °F 93% 30.32 in 6.0 mi Calm Calm - 0.00 in Rain Light Rain
8:53 AM 42.1 °F 40.2 °F 35.1 °F 76% 30.35 in 10.0 mi WNW 3.5 mph - 0.00 in   Mostly Cloudy
9:53 AM 44.1 °F 40.1 °F 36.0 °F 73% 30.35 in 10.0 mi NNW 6.9 mph - N/A   Mostly Cloudy
10:31 AM 41.0 °F 35.2 °F 35.6 °F 81% 30.34 in 10.0 mi NW 9.2 mph - N/A   Overcast
10:53 AM 41.0 °F 35.8 °F 35.1 °F 79% 30.36 in 10.0 mi NW 8.1 mph - 0.00 in Rain Light Rain
11:06 AM 44.6 °F 42.2 °F 35.6 °F 71% 30.34 in 10.0 mi Variable 4.6 mph - 0.00 in   Mostly Cloudy
11:53 AM 46.9 °F - 32.0 °F 56% 30.36 in 10.0 mi NNW 11.5 mph - 0.00 in   Mostly Cloudy
12:53 PM 50.0 °F - 28.0 °F 43% 30.34 in 10.0 mi WNW 9.2 mph - 0.01 in   Mostly Cloudy
1:53 PM 50.0 °F - 26.1 °F 39% 30.33 in 10.0 mi NW 12.7 mph - N/A   Mostly Cloudy
2:53 PM 50.0 °F - 26.1 °F 39% 30.33 in 10.0 mi NW 12.7 mph - 0.01 in   Mostly Cloudy
3:53 PM 48.9 °F - 24.1 °F 38% 30.31 in 10.0 mi West 10.4 mph - N/A   Mostly Cloudy
4:53 PM 50.0 °F - 25.0 °F 38% 30.31 in 10.0 mi NW 9.2 mph - N/A   Scattered Clouds
5:53 PM 46.0 °F 43.1 °F 28.0 °F 50% 30.32 in 10.0 mi NNW 5.8 mph - N/A   Mostly Cloudy
6:53 PM 42.1 °F 37.1 °F 30.9 °F 65% 30.35 in 10.0 mi North 8.1 mph - N/A   Partly Cloudy
7:53 PM 39.9 °F 33.9 °F 30.0 °F 68% 30.35 in 10.0 mi North 9.2 mph - N/A   Partly Cloudy
8:53 PM 41.0 °F 36.4 °F 30.0 °F 65% 30.38 in 10.0 mi North 6.9 mph - N/A   Overcast
9:53 PM 39.9 °F 37.8 °F 30.9 °F 70% 30.40 in 10.0 mi NNW 3.5 mph - N/A   Overcast
10:53 PM 39.9 °F 36.7 °F 28.9 °F 65% 30.41 in 10.0 mi NW 4.6 mph - N/A   Clear
11:53 PM 32.0 °F - 27.0 °F 82% 30.41 in 10.0 mi Calm Calm - N/A   Clear